Regional Weather Roundup
Issued by NWS

Home | Current Version | Previous Version | Text Only | Print | Product List | Glossary On
Versions: 1 2 3 4 5 6 7 8 9 10 11 12 13 14 15 16 17 18 19 20 21 22 23 24 25 26 27 28 29 30 31 32 33 34 35 36 37 38 39 40 41 42 43 44 45 46 47 48 49 50
000
ASUS43 KBIS 311620
RWRND

NORTH DAKOTA REGIONAL WEATHER ROUNDUP
NATIONAL WEATHER SERVICE BISMARCK ND
1100 AM CDT THU JUL 31 2014

NOTE: "FAIR" INDICATES FEW OR NO CLOUDS BELOW 12,000 FEET WITH NO
SIGNIFICANT WEATHER AND/OR OBSTRUCTIONS TO VISIBILITY.


NDZ001>003-009>011-017-311700-
NORTHWEST NORTH DAKOTA

CITY           SKY/WX    TMP DP  RH WIND       PRES   REMARKS
WILLISTON      MOSUNNY   74  56  53 S12       30.05F
MINOT AFB      SUNNY     74  58  58 VRB1      30.08S
$$

NDZ018>021-031>035-040>046-311700-
SOUTHWEST NORTH DAKOTA

CITY           SKY/WX    TMP DP  RH WIND       PRES   REMARKS
BISMARCK       SUNNY     77  59  53 CALM      30.09F
DICKINSON      MOSUNNY   75  55  49 S7        30.10S
GARRISON         N/A     75  57  53 SE6       30.09S
HETTINGER ARPT MOSUNNY   75  50  41 SW5       30.13F
$$

NDZ004>008-012>016-024-026-027-054-311700-
NORTHEAST NORTH DAKOTA

CITY           SKY/WX    TMP DP  RH WIND       PRES   REMARKS
GRND FRKS AFB  SUNNY     75  65  70 VRB6      30.05R
DEVILS LAKE    SUNNY     75  61  60 NW6       30.06S
$$

NDZ022-023-025-028>030-036>039-047>053-311700-
SOUTHEAST NORTH DAKOTA

CITY           SKY/WX    TMP DP  RH WIND       PRES   REMARKS
FARGO          SUNNY     77  58  51 W5        30.04S
JAMESTOWN      SUNNY     76  59  55 N7        30.08S
$$




USA.gov is the U.S. government's official web portal to all federal, state and local government web resources and services.